Weather in Shorun'zha

Russia / Mari El Republic     56°27′49″N   49°30′51″E
temp.,
°C
wind,
m/s
gust,
m/s
humid.,
%
clouds,
%
prec.,
mm/h
press.,
hPa
HPBL,
m
7 march, sun
sun700:00−15wsw119898 0.1 101120
03:00−15wsw229895 0.2 101124
06:00−16sw229894 0.1 101024
09:00−14sw249596 0.1 1010239
12:00−10ssw3690100 0.1 1008500
15:00−9s4790100 0.1 1006571
18:00−11s51093100 0.1 1004461
21:00−9s61393100 0.5 1001816
8 march, mon
mon800:00−8s61393100 1.1 996813
03:00−7s61293100 1.8 993730
06:00−6ssw41096100 1.0 992558
09:00−8w5982100 1.3 993504
12:00−6sw5107871 0.0 996903
15:00−6sw588485 0.0 998907
18:00−9ssw3595100 0.1 998141
21:00−11wsw2296100 0.1 99821
9 march, tue
tue900:00−13wsw2295100 0.0 99920
03:00−14wnw239796 0.0 100130
06:00−16wnw239893 0.1 100349
09:00−14nw359391 0.1 1005282
12:00−11nw3589100 0.1 1007522
15:00−12nw4687100 0.1 1008652
18:00−15nw3895100 0.1 1009300
21:00−17nw369794 0.1 1011143
10 march, wed
wed1000:00−19nw369878 0.0 1012164
03:00−21nnw369884 0.1 1013149
06:00−23nnw389889 0.0 1014213
09:00−23nnw479593 0.1 1016333
12:00−21nnw469090 0.0 1017411
15:00−20nnw478979 0.0 1017443
18:00−24nw34947 0.0 101882
21:00−24wnw37964 0.0 1019150
11 march, thu
thu1100:00−23w379826 0.0 1019144
03:00−24w379953 0.0 1019166
06:00−23w4109895 0.0 1019241
09:00−18w599295 0.0 1020326
12:00−12wnw598743 0.0 1020426
15:00−10w588632 0.0 1020510
18:00−13w4109417 0.0 1022293
21:00−14w389534 0.0 1026140